Time,TemperatureF,DewpointF,PressureIn,WindDirection,WindDirectionDegrees,WindSpeedMPH,WindSpeedGustMPH,Humidity,HourlyPrecipIn,Conditions,Clouds,dailyrainin,SoftwareType,DateUTC
2013-09-02 00:02:00,53.6,46.6,30.35,SSW,210,0.0,0.0,77,0.00,,---,0.00,VWS V14.01,2013-09-02 06:02:00,
2013-09-02 00:07:00,53.6,46.6,30.35,SW,218,0.0,0.0,77,0.00,,---,0.00,VWS V14.01,2013-09-02 06:07:00,
2013-09-02 00:13:00,53.4,46.7,30.35,SSW,195,3.1,4.0,78,0.00,,---,0.00,VWS V14.01,2013-09-02 06:13:00,
2013-09-02 00:19:00,53.4,46.7,30.35,WSW,239,3.6,3.6,78,0.00,,---,0.00,VWS V14.01,2013-09-02 06:19:00,
2013-09-02 00:24:00,53.4,46.7,30.35,SSW,203,0.0,0.0,78,0.00,,---,0.00,VWS V14.01,2013-09-02 06:24:00,
2013-09-02 00:29:00,53.4,46.7,30.35,SW,218,0.0,0.0,78,0.00,,---,0.00,VWS V14.01,2013-09-02 06:29:00,
2013-09-02 00:34:00,53.4,47.1,30.35,SW,226,6.3,6.3,79,0.00,,---,0.00,VWS V14.01,2013-09-02 06:34:00,
2013-09-02 00:40:00,53.2,46.9,30.35,SW,226,0.0,2.7,79,0.00,,---,0.00,VWS V14.01,2013-09-02 06:40:00,
2013-09-02 00:45:00,53.1,46.4,30.35,SW,228,4.9,5.4,78,0.00,,---,0.00,VWS V14.01,2013-09-02 06:45:00,
2013-09-02 00:50:00,53.1,46.4,30.35,SW,236,3.6,6.3,78,0.00,,---,0.00,VWS V14.01,2013-09-02 06:50:00,
2013-09-02 00:55:00,52.9,46.2,30.35,WSW,239,4.0,5.4,78,0.00,,---,0.00,VWS V14.01,2013-09-02 06:55:00,
2013-09-02 01:01:00,52.9,46.2,30.35,SSW,193,0.0,2.7,78,0.00,,---,0.00,VWS V14.01,2013-09-02 07:01:00,
2013-09-02 01:07:00,52.7,46.4,30.35,SW,224,4.0,7.6,79,0.00,,---,0.00,VWS V14.01,2013-09-02 07:07:00,
2013-09-02 01:12:00,52.7,46.4,30.35,South,175,0.0,3.6,79,0.00,,---,0.00,VWS V14.01,2013-09-02 07:12:00,
2013-09-02 01:18:00,52.7,46.4,30.35,SW,221,5.4,5.8,79,0.00,,---,0.00,VWS V14.01,2013-09-02 07:18:00,
2013-09-02 01:23:00,52.5,45.9,30.35,SSW,212,2.2,5.8,78,0.00,,---,0.00,VWS V14.01,2013-09-02 07:23:00,
2013-09-02 01:29:00,52.5,45.9,30.35,ESE,122,3.1,7.6,78,0.00,,---,0.00,VWS V14.01,2013-09-02 07:29:00,
2013-09-02 01:34:00,52.5,45.5,30.35,SE,137,0.0,0.0,77,0.00,,---,0.00,VWS V14.01,2013-09-02 07:34:00,
2013-09-02 01:40:00,52.5,45.5,30.35,SE,139,3.6,4.9,77,0.00,,---,0.00,VWS V14.01,2013-09-02 07:40:00,
2013-09-02 01:46:00,52.5,44.8,30.35,South,187,6.3,6.3,75,0.00,,---,0.00,VWS V14.01,2013-09-02 07:46:00,
2013-09-02 01:51:00,52.3,44.7,30.35,SSW,213,4.9,9.6,75,0.00,,---,0.00,VWS V14.01,2013-09-02 07:51:00,
2013-09-02 01:56:00,52.2,44.5,30.35,SSE,167,0.0,3.1,75,0.00,,---,0.00,VWS V14.01,2013-09-02 07:56:00,
2013-09-02 02:01:00,52.3,45.0,30.35,SSW,211,2.2,4.9,76,0.00,,---,0.00,VWS V14.01,2013-09-02 08:01:00,
2013-09-02 02:07:00,52.2,44.5,30.35,SSW,210,3.6,6.3,75,0.00,,---,0.00,VWS V14.01,2013-09-02 08:07:00,
2013-09-02 02:12:00,51.8,43.8,30.35,SW,221,3.1,4.0,74,0.00,,---,0.00,VWS V14.01,2013-09-02 08:12:00,
2013-09-02 02:18:00,51.6,44.0,30.35,SSW,210,4.0,6.3,75,0.00,,---,0.00,VWS V14.01,2013-09-02 08:18:00,
2013-09-02 02:23:00,51.3,43.6,30.35,South,183,4.0,6.3,75,0.00,,---,0.00,VWS V14.01,2013-09-02 08:23:00,
2013-09-02 02:28:00,51.1,43.8,30.35,SSW,195,4.0,4.9,76,0.00,,---,0.00,VWS V14.01,2013-09-02 08:28:00,
2013-09-02 02:33:00,50.9,43.6,30.35,SSW,196,4.0,5.4,76,0.00,,---,0.00,VWS V14.01,2013-09-02 08:33:00,
2013-09-02 02:39:00,50.9,44.0,30.35,SSW,193,6.7,6.7,77,0.00,,---,0.00,VWS V14.01,2013-09-02 08:39:00,
2013-09-02 02:44:00,50.9,43.6,30.35,SSW,203,5.4,6.3,76,0.00,,---,0.00,VWS V14.01,2013-09-02 08:44:00,
2013-09-02 02:49:00,50.5,43.3,30.35,South,177,3.6,5.4,76,0.00,,---,0.00,VWS V14.01,2013-09-02 08:49:00,
2013-09-02 02:54:00,50.5,43.3,30.35,South,173,4.9,5.8,76,0.00,,---,0.00,VWS V14.01,2013-09-02 08:54:00,
2013-09-02 03:00:00,50.5,43.6,30.35,South,185,4.5,4.9,77,0.00,,---,0.00,VWS V14.01,2013-09-02 09:00:00,
2013-09-02 03:05:00,50.4,43.4,30.35,South,187,0.0,0.0,77,0.00,,---,0.00,VWS V14.01,2013-09-02 09:05:00,
2013-09-02 03:11:00,50.4,43.8,30.35,SSW,193,2.2,5.8,78,0.00,,---,0.00,VWS V14.01,2013-09-02 09:11:00,
2013-09-02 03:17:00,50.4,43.8,30.35,South,186,5.4,5.8,78,0.00,,---,0.00,VWS V14.01,2013-09-02 09:17:00,
2013-09-02 03:22:00,50.4,43.8,30.35,SSW,200,3.6,3.6,78,0.00,,---,0.00,VWS V14.01,2013-09-02 09:22:00,
2013-09-02 03:28:00,50.4,43.8,30.32,SSW,196,4.0,4.9,78,0.00,,---,0.00,VWS V14.01,2013-09-02 09:28:00,
2013-09-02 03:33:00,50.2,43.6,30.32,SSW,195,3.1,4.5,78,0.00,,---,0.00,VWS V14.01,2013-09-02 09:33:00,
2013-09-02 03:38:00,50.2,43.6,30.32,SSW,206,5.4,5.8,78,0.00,,---,0.00,VWS V14.01,2013-09-02 09:38:00,
2013-09-02 03:43:00,50.0,43.4,30.32,South,176,3.6,4.0,78,0.00,,---,0.00,VWS V14.01,2013-09-02 09:43:00,
2013-09-02 03:49:00,50.0,43.8,30.32,South,183,3.1,5.4,79,0.00,,---,0.00,VWS V14.01,2013-09-02 09:49:00,
2013-09-02 03:54:00,50.0,43.8,30.35,SSE,156,2.7,5.8,79,0.00,,---,0.00,VWS V14.01,2013-09-02 09:54:00,
2013-09-02 04:00:00,50.2,44.3,30.35,SSE,159,2.7,3.6,80,0.00,,---,0.00,VWS V14.01,2013-09-02 10:00:00,
2013-09-02 04:06:00,50.4,44.4,30.35,SW,214,4.0,4.5,80,0.00,,---,0.00,VWS V14.01,2013-09-02 10:06:00,
2013-09-02 04:11:00,50.4,44.1,30.32,SW,225,4.9,8.1,79,0.00,,---,0.00,VWS V14.01,2013-09-02 10:11:00,
2013-09-02 04:16:00,50.2,43.9,30.32,SW,225,3.1,6.3,79,0.00,,---,0.00,VWS V14.01,2013-09-02 10:16:00,
2013-09-02 04:21:00,50.2,43.9,30.32,SW,221,5.4,8.1,79,0.00,,---,0.00,VWS V14.01,2013-09-02 10:21:00,
2013-09-02 04:27:00,50.2,43.9,30.32,SSW,197,3.6,6.3,79,0.00,,---,0.00,VWS V14.01,2013-09-02 10:27:00,
2013-09-02 04:32:00,50.2,43.9,30.32,South,182,4.0,4.0,79,0.00,,---,0.00,VWS V14.01,2013-09-02 10:32:00,
2013-09-02 04:38:00,50.2,44.3,30.32,South,173,3.6,4.9,80,0.00,,---,0.00,VWS V14.01,2013-09-02 10:38:00,
2013-09-02 04:43:00,50.2,44.3,30.32,SSW,199,5.8,5.8,80,0.00,,---,0.00,VWS V14.01,2013-09-02 10:43:00,
2013-09-02 04:48:00,50.2,44.3,30.32,SSW,209,6.3,6.3,80,0.00,,---,0.00,VWS V14.01,2013-09-02 10:48:00,
2013-09-02 04:53:00,50.4,44.4,30.32,SSE,167,3.1,6.3,80,0.00,,---,0.00,VWS V14.01,2013-09-02 10:53:00,
2013-09-02 04:59:00,50.7,44.8,30.32,SE,140,0.0,3.6,80,0.00,,---,0.00,VWS V14.01,2013-09-02 10:59:00,
2013-09-02 05:04:00,51.3,44.3,30.32,SSW,206,3.6,4.9,77,0.00,,---,0.00,VWS V14.01,2013-09-02 11:04:00,
2013-09-02 05:10:00,51.1,43.8,30.32,South,171,3.1,4.9,76,0.00,,---,0.00,VWS V14.01,2013-09-02 11:10:00,
2013-09-02 05:16:00,50.9,43.6,30.32,SSW,204,3.6,5.4,76,0.00,,---,0.00,VWS V14.01,2013-09-02 11:16:00,
2013-09-02 05:21:00,50.7,43.4,30.32,SSW,209,4.0,6.3,76,0.00,,---,0.00,VWS V14.01,2013-09-02 11:21:00,
2013-09-02 05:27:00,50.7,43.4,30.32,SSW,200,3.6,6.3,76,0.00,,---,0.00,VWS V14.01,2013-09-02 11:27:00,
2013-09-02 05:32:00,50.5,43.6,30.32,SSW,202,3.6,4.0,77,0.00,,---,0.00,VWS V14.01,2013-09-02 11:32:00,
2013-09-02 05:38:00,50.5,43.6,30.32,SW,229,3.6,6.3,77,0.00,,---,0.00,VWS V14.01,2013-09-02 11:38:00,
2013-09-02 05:44:00,50.5,44.0,30.32,SW,221,6.3,6.3,78,0.00,,---,0.00,VWS V14.01,2013-09-02 11:44:00,
2013-09-02 05:50:00,50.5,44.0,30.32,SSW,211,3.1,7.6,78,0.00,,---,0.00,VWS V14.01,2013-09-02 11:50:00,
2013-09-02 05:56:00,50.5,44.0,30.32,SSW,197,6.3,7.6,78,0.00,,---,0.00,VWS V14.01,2013-09-02 11:56:00,
2013-09-02 06:02:00,50.5,44.3,30.32,SSW,199,4.0,6.7,79,0.00,,---,0.00,VWS V14.01,2013-09-02 12:02:00,
2013-09-02 06:07:00,50.5,44.3,30.32,SW,216,4.0,4.5,79,0.00,,---,0.00,VWS V14.01,2013-09-02 12:07:00,
2013-09-02 06:13:00,50.5,44.3,30.32,South,188,5.4,5.4,79,0.00,,---,0.00,VWS V14.01,2013-09-02 12:13:00,
2013-09-02 06:18:00,50.5,44.6,30.32,South,175,2.2,6.3,80,0.00,,---,0.00,VWS V14.01,2013-09-02 12:18:00,
2013-09-02 06:24:00,50.7,44.8,30.32,SSE,167,0.0,3.1,80,0.00,,---,0.00,VWS V14.01,2013-09-02 12:24:00,
2013-09-02 06:29:00,50.9,45.0,30.32,South,186,4.0,4.9,80,0.00,,---,0.00,VWS V14.01,2013-09-02 12:29:00,
2013-09-02 06:35:00,51.1,45.1,30.32,South,181,6.3,6.3,80,0.00,,---,0.00,VWS V14.01,2013-09-02 12:35:00,
2013-09-02 06:41:00,51.3,45.0,30.32,South,189,2.7,5.4,79,0.00,,---,0.00,VWS V14.01,2013-09-02 12:41:00,
2013-09-02 06:46:00,51.3,45.0,30.32,SSE,156,0.0,3.6,79,0.00,,---,0.00,VWS V14.01,2013-09-02 12:46:00,
2013-09-02 06:52:00,51.4,45.2,30.32,SW,216,0.0,0.0,79,0.00,,---,0.00,VWS V14.01,2013-09-02 12:52:00,
2013-09-02 06:58:00,51.4,44.8,30.35,SSW,204,4.0,5.4,78,0.00,,---,0.00,VWS V14.01,2013-09-02 12:58:00,
2013-09-02 07:03:00,51.3,44.3,30.35,SW,217,3.6,5.4,77,0.00,,---,0.00,VWS V14.01,2013-09-02 13:03:00,
2013-09-02 07:08:00,51.3,44.6,30.35,SSW,199,0.0,3.6,78,0.00,,---,0.00,VWS V14.01,2013-09-02 13:08:00,
2013-09-02 07:13:00,51.3,44.6,30.35,South,179,3.6,5.8,78,0.00,,---,0.00,VWS V14.01,2013-09-02 13:13:00,
2013-09-02 07:19:00,51.3,44.6,30.35,South,184,0.0,2.2,78,0.00,,---,0.00,VWS V14.01,2013-09-02 13:19:00,
2013-09-02 07:24:00,51.3,44.6,30.35,South,182,0.0,0.0,78,0.00,,---,0.00,VWS V14.01,2013-09-02 13:24:00,
2013-09-02 07:30:00,51.3,44.6,30.35,South,184,3.6,4.9,78,0.00,,---,0.00,VWS V14.01,2013-09-02 13:30:00,
2013-09-02 07:36:00,51.3,44.6,30.35,SSE,165,0.0,0.0,78,0.00,,---,0.00,VWS V14.01,2013-09-02 13:36:00,
2013-09-02 07:41:00,51.3,44.6,30.35,SSW,192,0.0,0.0,78,0.00,,---,0.00,VWS V14.01,2013-09-02 13:41:00,
2013-09-02 07:47:00,51.3,44.6,30.35,WSW,242,0.0,0.0,78,0.00,,---,0.00,VWS V14.01,2013-09-02 13:47:00,
2013-09-02 07:52:00,51.3,44.6,30.35,WSW,242,0.0,0.0,78,0.00,,---,0.00,VWS V14.01,2013-09-02 13:52:00,
2013-09-02 07:58:00,51.3,44.6,30.35,WSW,242,0.0,0.0,78,0.00,,---,0.00,VWS V14.01,2013-09-02 13:58:00,
2013-09-02 08:04:00,51.4,44.8,30.35,WSW,242,0.0,0.0,78,0.00,,---,0.00,VWS V14.01,2013-09-02 14:04:00,
2013-09-02 08:09:00,51.4,44.8,30.35,WSW,242,0.0,0.0,78,0.00,,---,0.00,VWS V14.01,2013-09-02 14:09:00,
2013-09-02 08:15:00,51.6,45.0,30.35,WSW,242,0.0,0.0,78,0.00,,---,0.00,VWS V14.01,2013-09-02 14:15:00,
2013-09-02 08:20:00,51.6,45.0,30.35,WSW,242,0.0,0.0,78,0.00,,---,0.00,VWS V14.01,2013-09-02 14:20:00,
2013-09-02 08:26:00,51.6,45.3,30.35,WSW,242,0.0,0.0,79,0.00,,---,0.00,VWS V14.01,2013-09-02 14:26:00,
2013-09-02 08:32:00,51.8,45.5,30.35,WSW,242,0.0,0.0,79,0.00,,---,0.00,VWS V14.01,2013-09-02 14:32:00,
2013-09-02 08:37:00,52.0,46.0,30.35,WSW,242,0.0,0.0,80,0.00,,---,0.00,VWS V14.01,2013-09-02 14:37:00,
2013-09-02 08:42:00,52.0,46.0,30.35,WSW,242,0.0,0.0,80,0.00,,---,0.00,VWS V14.01,2013-09-02 14:42:00,
2013-09-02 08:47:00,52.0,46.0,30.35,WSW,242,0.0,0.0,80,0.00,,---,0.00,VWS V14.01,2013-09-02 14:47:00,
2013-09-02 08:53:00,52.2,46.2,30.35,WSW,242,0.0,0.0,80,0.00,,---,0.00,VWS V14.01,2013-09-02 14:53:00,
2013-09-02 08:58:00,52.2,46.2,30.35,WSW,242,0.0,0.0,80,0.00,,---,0.00,VWS V14.01,2013-09-02 14:58:00,
2013-09-02 09:04:00,52.2,46.5,30.35,WSW,242,0.0,0.0,81,0.00,,---,0.00,VWS V14.01,2013-09-02 15:04:00,
2013-09-02 09:09:00,52.3,46.4,30.35,WSW,242,0.0,0.0,80,0.00,,---,0.00,VWS V14.01,2013-09-02 15:09:00,
2013-09-02 09:15:00,52.3,46.4,30.35,WSW,242,0.0,0.0,80,0.00,,---,0.00,VWS V14.01,2013-09-02 15:15:00,
2013-09-02 09:20:00,52.5,46.9,30.35,WSW,242,0.0,0.0,81,0.00,,---,0.00,VWS V14.01,2013-09-02 15:20:00,
2013-09-02 09:26:00,52.7,47.0,30.35,WSW,242,0.0,0.0,81,0.00,,---,0.00,VWS V14.01,2013-09-02 15:26:00,
2013-09-02 09:32:00,52.9,47.2,30.35,WSW,242,0.0,0.0,81,0.00,,---,0.00,VWS V14.01,2013-09-02 15:32:00,
2013-09-02 09:37:00,53.1,47.4,30.35,WSW,242,0.0,0.0,81,0.00,,---,0.00,VWS V14.01,2013-09-02 15:37:00,
2013-09-02 09:43:00,53.2,47.6,30.35,WSW,242,0.0,0.0,81,0.00,,---,0.00,VWS V14.01,2013-09-02 15:43:00,
2013-09-02 09:49:00,53.6,47.9,30.35,WSW,242,0.0,0.0,81,0.00,,---,0.00,VWS V14.01,2013-09-02 15:49:00,
2013-09-02 09:54:00,53.6,47.9,30.35,WSW,242,0.0,0.0,81,0.00,,---,0.00,VWS V14.01,2013-09-02 15:54:00,
2013-09-02 10:00:00,53.8,47.8,30.35,WSW,242,0.0,0.0,80,0.00,,---,0.00,VWS V14.01,2013-09-02 16:00:00,
2013-09-02 10:05:00,54.0,47.9,30.35,WSW,242,0.0,0.0,80,0.00,,---,0.00,VWS V14.01,2013-09-02 16:05:00,
2013-09-02 10:11:00,54.1,48.1,30.35,WSW,242,0.0,0.0,80,0.00,,---,0.00,VWS V14.01,2013-09-02 16:11:00,
2013-09-02 10:17:00,54.1,47.8,30.35,WSW,242,0.0,0.0,79,0.00,,---,0.00,VWS V14.01,2013-09-02 16:17:00,
2013-09-02 10:22:00,54.3,48.0,30.35,WSW,242,0.0,0.0,79,0.00,,---,0.00,VWS V14.01,2013-09-02 16:22:00,
2013-09-02 10:28:00,54.7,48.3,30.35,WSW,242,0.0,0.0,79,0.00,,---,0.00,VWS V14.01,2013-09-02 16:28:00,
2013-09-02 10:33:00,54.9,48.5,30.35,WSW,242,0.0,0.0,79,0.00,,---,0.00,VWS V14.01,2013-09-02 16:33:00,
2013-09-02 10:39:00,55.0,48.0,30.35,NNW,343,0.0,0.0,77,0.00,,---,0.00,VWS V14.01,2013-09-02 16:39:00,
2013-09-02 10:45:00,55.6,47.8,30.35,NE,43,0.0,0.0,75,0.00,,---,0.00,VWS V14.01,2013-09-02 16:45:00,
2013-09-02 10:50:00,55.9,48.1,30.35,North,353,0.0,0.0,75,0.00,,---,0.00,VWS V14.01,2013-09-02 16:50:00,
2013-09-02 10:55:00,56.5,48.3,30.35,North,350,0.0,0.0,74,0.00,,---,0.00,VWS V14.01,2013-09-02 16:55:00,
2013-09-02 11:00:00,56.8,48.3,30.35,NNW,345,0.0,0.0,73,0.00,,---,0.00,VWS V14.01,2013-09-02 17:00:00,
2013-09-02 11:06:00,57.4,48.1,30.35,West,277,2.7,4.9,71,0.00,,---,0.00,VWS V14.01,2013-09-02 17:06:00,
2013-09-02 11:11:00,57.7,48.4,30.35,West,277,0.0,0.0,71,0.00,,---,0.00,VWS V14.01,2013-09-02 17:11:00,
2013-09-02 11:17:00,58.1,48.0,30.35,West,277,0.0,0.0,69,0.00,,---,0.00,VWS V14.01,2013-09-02 17:17:00,
2013-09-02 11:22:00,58.5,47.2,30.35,NNW,341,0.0,0.0,66,0.00,,---,0.00,VWS V14.01,2013-09-02 17:22:00,
2013-09-02 11:28:00,59.2,47.4,30.35,NW,304,2.7,4.5,65,0.00,,---,0.00,VWS V14.01,2013-09-02 17:28:00,
2013-09-02 11:33:00,59.7,44.9,30.35,NW,313,3.6,5.8,58,0.00,,---,0.00,VWS V14.01,2013-09-02 17:33:00,
2013-09-02 11:39:00,60.4,44.2,30.35,NW,321,3.1,3.6,55,0.00,,---,0.00,VWS V14.01,2013-09-02 17:39:00,
2013-09-02 11:45:00,60.8,42.6,30.35,North,350,0.0,4.0,51,0.00,,---,0.00,VWS V14.01,2013-09-02 17:45:00,
2013-09-02 11:50:00,61.0,42.7,30.35,WNW,298,3.1,4.0,51,0.00,,---,0.00,VWS V14.01,2013-09-02 17:50:00,
2013-09-02 11:56:00,61.5,41.1,30.35,NNE,27,0.0,4.0,47,0.00,,---,0.00,VWS V14.01,2013-09-02 17:56:00,
2013-09-02 12:02:00,61.9,40.9,30.35,NNW,333,2.7,5.8,46,0.00,,---,0.00,VWS V14.01,2013-09-02 18:02:00,
2013-09-02 12:07:00,62.1,39.9,30.35,NNW,328,4.9,4.9,44,0.00,,---,0.00,VWS V14.01,2013-09-02 18:07:00,
2013-09-02 12:12:00,62.6,39.8,30.32,NW,322,2.7,4.0,43,0.00,,---,0.00,VWS V14.01,2013-09-02 18:12:00,
2013-09-02 12:17:00,62.8,38.8,30.32,NNE,31,2.2,4.0,41,0.00,,---,0.00,VWS V14.01,2013-09-02 18:17:00,
2013-09-02 12:23:00,63.3,38.6,30.32,NE,55,0.0,4.9,40,0.00,,---,0.00,VWS V14.01,2013-09-02 18:23:00,
2013-09-02 12:28:00,63.7,37.6,30.32,NW,323,0.0,4.0,38,0.00,,---,0.00,VWS V14.01,2013-09-02 18:28:00,
2013-09-02 12:34:00,64.0,37.9,30.32,North,357,0.0,2.7,38,0.00,,---,0.00,VWS V14.01,2013-09-02 18:34:00,
2013-09-02 12:39:00,64.6,37.8,30.32,North,349,0.0,3.6,37,0.00,,---,0.00,VWS V14.01,2013-09-02 18:39:00,
2013-09-02 12:45:00,64.8,37.9,30.32,NNW,331,0.0,4.0,37,0.00,,---,0.00,VWS V14.01,2013-09-02 18:45:00,
2013-09-02 12:51:00,64.9,37.4,30.32,NNW,334,2.7,2.7,36,0.00,,---,0.00,VWS V14.01,2013-09-02 18:51:00,
2013-09-02 12:56:00,65.1,37.5,30.32,NNW,346,0.0,0.0,36,0.00,,---,0.00,VWS V14.01,2013-09-02 18:56:00,
2013-09-02 13:01:00,65.1,36.8,30.32,NNW,346,0.0,0.0,35,0.00,,---,0.00,VWS V14.01,2013-09-02 19:01:00,
2013-09-02 13:06:00,65.1,36.1,30.32,NW,319,2.7,3.6,34,0.00,,---,0.00,VWS V14.01,2013-09-02 19:06:00,
2013-09-02 13:12:00,65.3,37.0,30.32,North,350,0.0,0.0,35,0.00,,---,0.00,VWS V14.01,2013-09-02 19:12:00,
2013-09-02 13:17:00,65.5,37.1,30.32,West,264,2.2,2.7,35,0.00,,---,0.00,VWS V14.01,2013-09-02 19:17:00,
2013-09-02 13:23:00,65.8,37.5,30.32,NNW,330,0.0,0.0,35,0.00,,---,0.00,VWS V14.01,2013-09-02 19:23:00,
2013-09-02 13:28:00,65.8,36.7,30.32,NNW,327,0.0,0.0,34,0.00,,---,0.00,VWS V14.01,2013-09-02 19:28:00,
2013-09-02 13:34:00,66.0,36.9,30.32,NNW,335,0.0,0.0,34,0.00,,---,0.00,VWS V14.01,2013-09-02 19:34:00,
2013-09-02 13:39:00,66.2,37.0,30.32,NNW,335,0.0,0.0,34,0.00,,---,0.00,VWS V14.01,2013-09-02 19:39:00,
2013-09-02 13:45:00,66.4,37.2,30.32,NNW,335,0.0,0.0,34,0.00,,---,0.00,VWS V14.01,2013-09-02 19:45:00,
2013-09-02 13:50:00,66.7,37.5,30.32,NE,37,0.0,4.0,34,0.00,,---,0.00,VWS V14.01,2013-09-02 19:50:00,
2013-09-02 13:55:00,66.9,37.7,30.32,North,350,0.0,3.6,34,0.00,,---,0.00,VWS V14.01,2013-09-02 19:55:00,
2013-09-02 14:01:00,67.3,38.0,30.32,NNW,346,0.0,2.2,34,0.00,,---,0.00,VWS V14.01,2013-09-02 20:01:00,
2013-09-02 14:06:00,67.5,38.1,30.32,NNW,337,0.0,0.0,34,0.00,,---,0.00,VWS V14.01,2013-09-02 20:06:00,
2013-09-02 14:12:00,67.8,38.5,30.29,NNW,339,0.0,5.8,34,0.00,,---,0.00,VWS V14.01,2013-09-02 20:12:00,
2013-09-02 14:17:00,67.8,38.5,30.29,NW,326,3.6,4.0,34,0.00,,---,0.00,VWS V14.01,2013-09-02 20:17:00,
2013-09-02 14:23:00,68.2,38.0,30.29,NNW,330,0.0,4.0,33,0.00,,---,0.00,VWS V14.01,2013-09-02 20:23:00,
2013-09-02 14:29:00,68.9,37.8,30.29,NW,308,2.7,5.4,32,0.00,,---,0.00,VWS V14.01,2013-09-02 20:29:00,
2013-09-02 14:34:00,69.4,37.5,30.29,NNW,345,4.0,7.6,31,0.00,,---,0.00,VWS V14.01,2013-09-02 20:34:00,
2013-09-02 14:40:00,70.0,38.8,30.29,West,274,2.2,4.9,32,0.00,,---,0.00,VWS V14.01,2013-09-02 20:40:00,
2013-09-02 14:45:00,70.5,39.3,30.29,North,353,0.0,3.6,32,0.00,,---,0.00,VWS V14.01,2013-09-02 20:45:00,
2013-09-02 14:51:00,71.2,39.9,30.29,NNW,328,3.6,6.3,32,0.00,,---,0.00,VWS V14.01,2013-09-02 20:51:00,
2013-09-02 14:56:00,71.8,37.8,30.29,NE,42,5.8,7.6,29,0.00,,---,0.00,VWS V14.01,2013-09-02 20:56:00,
2013-09-02 15:02:00,72.5,38.5,30.29,NE,37,3.1,5.4,29,0.00,,---,0.00,VWS V14.01,2013-09-02 21:02:00,
2013-09-02 15:07:00,72.9,36.0,30.29,NNW,340,6.3,6.3,26,0.00,,---,0.00,VWS V14.01,2013-09-02 21:07:00,
2013-09-02 15:13:00,73.2,36.3,30.29,NW,315,5.4,5.4,26,0.00,,---,0.00,VWS V14.01,2013-09-02 21:13:00,
2013-09-02 15:19:00,73.8,36.8,30.29,NNW,337,3.1,3.6,26,0.00,,---,0.00,VWS V14.01,2013-09-02 21:19:00,
2013-09-02 15:25:00,74.7,35.5,30.29,North,357,3.1,6.3,24,0.00,,---,0.00,VWS V14.01,2013-09-02 21:25:00,
2013-09-02 15:30:00,74.7,35.5,30.29,North,353,5.8,6.3,24,0.00,,---,0.00,VWS V14.01,2013-09-02 21:30:00,
2013-09-02 15:36:00,73.9,33.8,30.29,NNE,25,3.1,5.8,23,0.00,,---,0.00,VWS V14.01,2013-09-02 21:36:00,
2013-09-02 15:41:00,73.4,34.5,30.29,NNW,345,5.8,5.8,24,0.00,,---,0.00,VWS V14.01,2013-09-02 21:41:00,
2013-09-02 15:47:00,72.9,36.0,30.29,NNE,12,0.0,4.0,26,0.00,,---,0.00,VWS V14.01,2013-09-02 21:47:00,
2013-09-02 15:52:00,72.3,34.6,30.29,NE,41,4.0,4.9,25,0.00,,---,0.00,VWS V14.01,2013-09-02 21:52:00,
2013-09-02 15:58:00,71.8,34.1,30.29,NNE,32,3.6,4.9,25,0.00,,---,0.00,VWS V14.01,2013-09-02 21:58:00,
2013-09-02 16:04:00,71.1,34.5,30.29,NE,45,2.2,4.0,26,0.00,,---,0.00,VWS V14.01,2013-09-02 22:04:00,
2013-09-02 16:09:00,70.3,32.9,30.29,ENE,58,3.6,5.4,25,0.00,,---,0.00,VWS V14.01,2013-09-02 22:09:00,
2013-09-02 16:15:00,69.8,33.4,30.29,North,5,2.2,3.6,26,0.00,,---,0.00,VWS V14.01,2013-09-02 22:15:00,
2013-09-02 16:21:00,69.3,33.9,30.29,NE,56,0.0,2.7,27,0.00,,---,0.00,VWS V14.01,2013-09-02 22:21:00,
2013-09-02 16:26:00,69.1,34.6,30.29,North,353,3.1,3.6,28,0.00,,---,0.00,VWS V14.01,2013-09-02 22:26:00,
2013-09-02 16:32:00,68.7,38.5,30.29,NE,54,0.0,0.0,33,0.00,,---,0.00,VWS V14.01,2013-09-02 22:32:00,
2013-09-02 16:37:00,67.8,38.5,30.29,East,96,0.0,0.0,34,0.00,,---,0.00,VWS V14.01,2013-09-02 22:37:00,
2013-09-02 16:42:00,67.1,38.6,30.32,East,96,0.0,0.0,35,0.00,,---,0.00,VWS V14.01,2013-09-02 22:42:00,
2013-09-02 16:47:00,66.6,38.8,30.32,SSE,164,0.0,0.0,36,0.00,,---,0.00,VWS V14.01,2013-09-02 22:47:00,
2013-09-02 16:53:00,65.5,41.8,30.32,SSW,202,8.1,8.1,42,0.00,,---,0.00,VWS V14.01,2013-09-02 22:53:00,
2013-09-02 16:59:00,64.4,40.8,30.32,WSW,251,0.0,0.0,42,0.00,,---,0.00,VWS V14.01,2013-09-02 22:59:00,
2013-09-02 17:04:00,64.0,41.7,30.32,WSW,251,0.0,0.0,44,0.00,,---,0.00,VWS V14.01,2013-09-02 23:04:00,
2013-09-02 17:10:00,63.7,41.4,30.32,WSW,251,0.0,0.0,44,0.00,,---,0.00,VWS V14.01,2013-09-02 23:10:00,
2013-09-02 17:15:00,63.1,40.9,30.32,SE,141,0.0,0.0,44,0.00,,---,0.00,VWS V14.01,2013-09-02 23:15:00,
2013-09-02 17:20:00,62.2,40.7,30.32,SE,133,0.0,0.0,45,0.00,,---,0.00,VWS V14.01,2013-09-02 23:20:00,
2013-09-02 17:25:00,61.9,40.3,30.32,SSW,202,4.0,5.4,45,0.00,,---,0.00,VWS V14.01,2013-09-02 23:25:00,
2013-09-02 17:31:00,61.2,40.2,30.32,SSW,206,4.5,4.5,46,0.00,,---,0.00,VWS V14.01,2013-09-02 23:31:00,
2013-09-02 17:36:00,60.6,40.8,30.32,West,267,6.7,8.1,48,0.00,,---,0.00,VWS V14.01,2013-09-02 23:36:00,
2013-09-02 17:42:00,59.9,46.0,30.32,SW,223,7.6,13.2,60,0.00,,---,0.00,VWS V14.01,2013-09-02 23:42:00,
2013-09-02 17:48:00,58.8,45.4,30.32,SW,233,4.9,11.0,61,0.00,,---,0.00,VWS V14.01,2013-09-02 23:48:00,
2013-09-02 17:53:00,58.1,45.6,30.32,SSE,152,8.7,13.2,63,0.00,,---,0.00,VWS V14.01,2013-09-02 23:53:00,
2013-09-02 17:59:00,57.4,45.3,30.32,SSW,208,12.8,12.8,64,0.00,,---,0.00,VWS V14.01,2013-09-02 23:59:00,
2013-09-02 18:04:00,57.2,46.0,30.32,WSW,256,10.1,13.2,66,0.00,,---,0.00,VWS V14.01,2013-09-03 00:04:00,
2013-09-02 18:09:00,57.2,47.1,30.32,South,186,10.1,11.0,69,0.00,,---,0.00,VWS V14.01,2013-09-03 00:09:00,
2013-09-02 18:14:00,57.2,46.4,30.32,South,172,8.7,9.6,67,0.00,,---,0.00,VWS V14.01,2013-09-03 00:14:00,
2013-09-02 18:20:00,57.4,47.3,30.32,SW,225,4.0,5.8,69,0.00,,---,0.00,VWS V14.01,2013-09-03 00:20:00,
2013-09-02 18:26:00,57.7,48.0,30.32,WSW,241,5.8,8.3,70,0.00,,---,0.00,VWS V14.01,2013-09-03 00:26:00,
2013-09-02 18:31:00,57.9,47.0,30.32,SW,230,6.7,8.1,67,0.00,,---,0.00,VWS V14.01,2013-09-03 00:31:00,
2013-09-02 18:36:00,57.7,46.1,30.32,WSW,246,5.4,8.7,65,0.00,,---,0.00,VWS V14.01,2013-09-03 00:36:00,
2013-09-02 18:42:00,57.9,47.0,30.32,WSW,239,8.1,8.3,67,0.00,,---,0.00,VWS V14.01,2013-09-03 00:42:00,
2013-09-02 18:48:00,57.7,45.7,30.32,SW,235,10.1,14.1,64,0.00,,---,0.00,VWS V14.01,2013-09-03 00:48:00,
2013-09-02 18:53:00,57.6,46.3,30.32,SSW,199,8.1,9.6,66,0.00,,---,0.00,VWS V14.01,2013-09-03 00:53:00,
2013-09-02 18:59:00,57.6,47.1,30.32,WSW,241,3.6,8.3,68,0.00,,---,0.00,VWS V14.01,2013-09-03 00:59:00,
2013-09-02 19:05:00,57.6,45.9,30.32,SSW,210,3.6,10.5,65,0.00,,---,0.00,VWS V14.01,2013-09-03 01:05:00,
2013-09-02 19:11:00,57.4,44.9,30.32,SW,234,8.1,11.9,63,0.00,,---,0.00,VWS V14.01,2013-09-03 01:11:00,
2013-09-02 19:17:00,57.2,44.7,30.32,SW,215,3.1,8.1,63,0.00,,---,0.00,VWS V14.01,2013-09-03 01:17:00,
2013-09-02 19:23:00,57.0,44.6,30.32,West,260,3.1,4.0,63,0.00,,---,0.00,VWS V14.01,2013-09-03 01:23:00,
2013-09-02 19:28:00,56.8,44.8,30.32,SW,232,5.4,9.2,64,0.00,,---,0.00,VWS V14.01,2013-09-03 01:28:00,
2013-09-02 19:34:00,56.7,45.8,30.32,SW,229,4.9,7.6,67,0.00,,---,0.00,VWS V14.01,2013-09-03 01:34:00,
2013-09-02 19:39:00,56.7,46.2,30.32,SW,223,4.0,4.0,68,0.00,,---,0.00,VWS V14.01,2013-09-03 01:39:00,
2013-09-02 19:45:00,56.5,46.5,30.32,WSW,237,4.0,8.1,69,0.00,,---,0.00,VWS V14.01,2013-09-03 01:45:00,
2013-09-02 19:50:00,56.3,46.7,30.32,SW,214,4.0,6.3,70,0.00,,---,0.00,VWS V14.01,2013-09-03 01:50:00,
2013-09-02 19:56:00,56.3,45.5,30.32,WSW,250,8.1,8.3,67,0.00,,---,0.00,VWS V14.01,2013-09-03 01:56:00,
2013-09-02 20:02:00,56.1,45.7,30.32,SW,218,5.4,5.4,68,0.00,,---,0.00,VWS V14.01,2013-09-03 02:02:00,
2013-09-02 20:08:00,55.9,46.3,30.32,SW,219,5.4,6.7,70,0.00,,---,0.00,VWS V14.01,2013-09-03 02:08:00,
2013-09-02 20:13:00,55.9,46.7,30.32,WSW,243,4.0,6.3,71,0.00,,---,0.00,VWS V14.01,2013-09-03 02:13:00,
2013-09-02 20:18:00,55.9,46.7,30.32,WSW,240,3.6,5.4,71,0.00,,---,0.00,VWS V14.01,2013-09-03 02:18:00,
2013-09-02 20:23:00,55.8,46.5,30.32,SW,228,3.6,4.9,71,0.00,,---,0.00,VWS V14.01,2013-09-03 02:23:00,
2013-09-02 20:29:00,55.8,46.5,30.32,SW,221,3.1,4.0,71,0.00,,---,0.00,VWS V14.01,2013-09-03 02:29:00,
2013-09-02 20:34:00,55.8,46.5,30.32,SW,228,2.2,5.4,71,0.00,,---,0.00,VWS V14.01,2013-09-03 02:34:00,
2013-09-02 20:40:00,55.6,46.7,30.32,SW,225,3.6,9.6,72,0.00,,---,0.00,VWS V14.01,2013-09-03 02:40:00,
2013-09-02 20:45:00,55.6,46.7,30.32,SSW,209,4.0,4.9,72,0.00,,---,0.00,VWS V14.01,2013-09-03 02:45:00,
2013-09-02 20:51:00,55.6,46.7,30.32,SW,231,3.1,6.3,72,0.00,,---,0.00,VWS V14.01,2013-09-03 02:51:00,
2013-09-02 20:57:00,55.6,46.3,30.32,SSW,208,6.3,6.3,71,0.00,,---,0.00,VWS V14.01,2013-09-03 02:57:00,
2013-09-02 21:03:00,55.6,46.0,30.32,SW,221,7.6,7.6,70,0.00,,---,0.00,VWS V14.01,2013-09-03 03:03:00,
2013-09-02 21:09:00,55.6,46.0,30.32,SW,222,5.4,8.1,70,0.00,,---,0.00,VWS V14.01,2013-09-03 03:09:00,
2013-09-02 21:14:00,55.4,45.8,30.32,SW,216,4.9,5.8,70,0.00,,---,0.00,VWS V14.01,2013-09-03 03:14:00,
2013-09-02 21:20:00,55.4,45.4,30.32,SE,140,4.9,6.3,69,0.00,,---,0.00,VWS V14.01,2013-09-03 03:20:00,
2013-09-02 21:26:00,55.4,45.0,30.35,SW,235,4.9,9.6,68,0.00,,---,0.00,VWS V14.01,2013-09-03 03:26:00,
2013-09-02 21:31:00,55.4,45.0,30.35,SW,223,8.1,8.1,68,0.00,,---,0.00,VWS V14.01,2013-09-03 03:31:00,
2013-09-02 21:37:00,55.2,44.9,30.35,South,191,6.3,6.7,68,0.00,,---,0.00,VWS V14.01,2013-09-03 03:37:00,
2013-09-02 21:42:00,55.2,44.9,30.32,SW,226,6.3,7.2,68,0.00,,---,0.00,VWS V14.01,2013-09-03 03:42:00,
2013-09-02 21:48:00,54.9,44.5,30.32,SSW,199,5.4,6.7,68,0.00,,---,0.00,VWS V14.01,2013-09-03 03:48:00,
2013-09-02 21:53:00,54.7,44.3,30.32,SW,217,5.4,6.7,68,0.00,,---,0.00,VWS V14.01,2013-09-03 03:53:00,
2013-09-02 21:58:00,54.3,44.4,30.32,SSW,200,3.6,6.3,69,0.00,,---,0.00,VWS V14.01,2013-09-03 03:58:00,
2013-09-02 22:01:00,54.3,44.4,30.32,SW,218,3.6,6.3,69,0.00,,---,0.00,VWS V14.01,2013-09-03 04:01:00,
2013-09-02 22:02:00,54.3,44.4,30.32,SSW,202,5.4,6.3,69,0.00,,---,0.00,VWS V14.01,2013-09-03 04:02:00,
2013-09-02 22:06:00,54.1,44.6,30.32,SW,216,5.4,8.7,70,0.00,,---,0.00,VWS V14.01,2013-09-03 04:06:00,
2013-09-02 22:11:00,54.1,44.2,30.35,WSW,239,5.8,6.3,69,0.00,,---,0.00,VWS V14.01,2013-09-03 04:11:00,
2013-09-02 22:13:00,54.1,44.2,30.35,SW,214,5.4,6.3,69,0.00,,---,0.00,VWS V14.01,2013-09-03 04:13:00,
2013-09-02 22:19:00,54.0,44.0,30.35,SW,214,5.8,8.3,69,0.00,,---,0.00,VWS V14.01,2013-09-03 04:19:00,
2013-09-02 22:24:00,53.8,43.9,30.35,WSW,247,5.8,5.8,69,0.00,,---,0.00,VWS V14.01,2013-09-03 04:24:00,
2013-09-02 22:30:00,53.6,44.4,30.35,SW,226,6.3,7.2,71,0.00,,---,0.00,VWS V14.01,2013-09-03 04:30:00,
2013-09-02 22:36:00,53.4,44.6,30.35,SSW,196,6.3,8.1,72,0.00,,---,0.00,VWS V14.01,2013-09-03 04:36:00,
2013-09-02 22:41:00,53.2,44.5,30.35,SW,229,8.1,8.1,72,0.00,,---,0.00,VWS V14.01,2013-09-03 04:41:00,
2013-09-02 22:47:00,53.2,44.8,30.35,SSW,212,6.7,7.6,73,0.00,,---,0.00,VWS V14.01,2013-09-03 04:47:00,
2013-09-02 22:52:00,53.1,44.7,30.35,South,179,5.4,6.3,73,0.00,,---,0.00,VWS V14.01,2013-09-03 04:52:00,
2013-09-02 22:58:00,53.1,44.3,30.32,SW,219,6.3,6.3,72,0.00,,---,0.00,VWS V14.01,2013-09-03 04:58:00,
2013-09-02 23:04:00,53.1,44.3,30.32,SSW,212,4.9,7.6,72,0.00,,---,0.00,VWS V14.01,2013-09-03 05:04:00,
2013-09-02 23:09:00,52.9,44.1,30.32,SSW,206,5.4,8.1,72,0.00,,---,0.00,VWS V14.01,2013-09-03 05:09:00,
2013-09-02 23:15:00,52.9,44.1,30.32,SSW,199,4.9,5.8,72,0.00,,---,0.00,VWS V14.01,2013-09-03 05:15:00,
2013-09-02 23:20:00,52.7,43.9,30.32,SSW,208,5.4,6.7,72,0.00,,---,0.00,VWS V14.01,2013-09-03 05:20:00,
2013-09-02 23:26:00,52.5,44.1,30.35,SW,221,6.7,6.7,73,0.00,,---,0.00,VWS V14.01,2013-09-03 05:26:00,
2013-09-02 23:32:00,52.5,44.1,30.35,South,188,3.1,6.7,73,0.00,,---,0.00,VWS V14.01,2013-09-03 05:32:00,
2013-09-02 23:37:00,52.5,43.8,30.35,SSW,198,0.0,2.2,72,0.00,,---,0.00,VWS V14.01,2013-09-03 05:37:00,
2013-09-02 23:42:00,52.5,43.0,30.35,WSW,248,3.1,3.6,70,0.00,,---,0.00,VWS V14.01,2013-09-03 05:42:00,
2013-09-02 23:47:00,52.7,42.8,30.35,South,191,8.3,8.3,69,0.00,,---,0.00,VWS V14.01,2013-09-03 05:47:00,
2013-09-02 23:53:00,52.3,42.9,30.35,South,180,4.5,8.7,70,0.00,,---,0.00,VWS V14.01,2013-09-03 05:53:00,
2013-09-02 23:59:00,52.2,43.1,30.35,SSW,196,6.3,8.1,71,0.00,,---,0.00,VWS V14.01,2013-09-03 05:59:00,